{"data":{"norad_id":61533,"epoch":"2026-05-25T04:40:00.474816Z","epoch_age_seconds":61469,"freshness":"FRESH","line1":"1 61533U 24184B   26145.19444994  .00001170  00000+0  14509-4 0  9990","line2":"2 61533  53.1586 219.0943 0000847  76.8385 283.2727 15.69712948 92433","mean_motion":15.69712948,"eccentricity":8.47e-5,"inclination_deg":53.1586,"raan_deg":219.0943,"arg_perigee_deg":76.8385,"mean_anomaly_deg":283.2727,"bstar":1.4509e-5,"rev_number":9243,"period_min":91.736517930538,"perigee_km":359.14761804029,"apogee_km":360.28901073055,"semimajor_km":6737.8553143854,"source":"CELESTRAK","updated_at":"2026-05-25T13:38:19.397209Z"}}